Weather History for KPNE - April, 2013

Change the Weather History Date:

Saturday, April 20, 2013

  Actual Average Record
Temperature  
Mean Temperature 52 °F -  
Max Temperature 59 °F 63 °F 86 °F (2005)
Min Temperature 46 °F 41 °F 37 °F (1999)
Degree Days  
Heating Degree Days 12    
Growing Degree Days 2 (Base 50)    
Moisture  
Dew Point 32 °F    
Average Humidity 51    
Maximum Humidity 90    
Minimum Humidity 30    
Precipitation  
Precipitation 0.15 in - - ()
Sea Level Pressure  
Sea Level Pressure 30.03 in    
Wind  
Wind Speed 11 mph (WNW)    
Max Wind Speed 18 mph    
Max Gust Speed 31 mph    
Visibility 10 miles    
Events Rain    
Averages and records for this station are not official NWS values.
T = Trace of Precipitation, MM = Missing Value Source: NWS Daily Summary

Daily Weather History Graph

Daily Weather History Graph

Search for Another Location

Airport or City:

Trip Planner

Search our weather history database for the weather conditions in past years. The results will help you decide how hot, cold, wet, or windy it might be!

Date:

Astronomy

Apr. 20, 2013 Rise Set
Actual Time 6:14 AM EDT 7:43 PM EDT
Civil Twilight 5:46 AM EDT 8:12 PM EDT
Nautical Twilight 5:11 AM EDT 8:46 PM EDT
Astronomical Twilight 4:35 AM EDT 9:23 PM EDT
Moon 2:25 PM EDT (4/20) 3:02 AM EDT (4/20)
Length of Visible Light 14h 26m
Length of Day
13h 29m
Waxing Gibbous, 71% of the Moon is Illuminated
Apr 20
Waxing Gibbous
Apr 25
Full
May 2
Last Quarter
May 9
New
May 18
First Quarter

Hourly Weather History & Observations

Time (EDT) Temp. Windchill Dew Point Humidity Pressure Visibility Wind Dir Wind Speed Gust Speed Precip Events Conditions
12:54 AM 54.0 °F - 51.1 °F 90% 29.76 in 10.0 mi NW 9.2 mph - 0.04 in Rain Light Rain
1:54 AM 51.1 °F - 48.0 °F 89% 29.79 in 6.0 mi NW 12.7 mph 19.6 mph 0.05 in Rain Rain
2:54 AM 50.0 °F - 46.0 °F 86% 29.80 in 10.0 mi WNW 8.1 mph - 0.06 in Rain Light Rain
3:54 AM 50.0 °F - 45.0 °F 83% 29.81 in 10.0 mi WNW 9.2 mph - 0.00 in Rain Light Rain
4:54 AM 48.9 °F - 43.0 °F 80% 29.86 in 10.0 mi WNW 8.1 mph - 0.00 in   Overcast
5:54 AM 48.9 °F - 42.1 °F 77% 29.89 in 10.0 mi WNW 5.8 mph - 0.00 in   Overcast
6:54 AM 48.9 °F - 39.0 °F 69% 29.93 in 10.0 mi WNW 5.8 mph - N/A   Overcast
7:54 AM 50.0 °F - 36.0 °F 59% 29.94 in 10.0 mi WNW 11.5 mph 17.3 mph N/A   Partly Cloudy
8:54 AM 50.0 °F - 34.0 °F 54% 29.96 in 10.0 mi WNW 12.7 mph 18.4 mph N/A   Clear
9:54 AM 50.0 °F - 32.0 °F 50% 30.00 in 10.0 mi WNW 15.0 mph 21.9 mph N/A   Clear
10:54 AM 51.1 °F - 32.0 °F 48% 30.04 in 10.0 mi West 10.4 mph - N/A   Clear
11:54 AM 51.1 °F - 28.9 °F 43% 30.05 in 10.0 mi West 11.5 mph 24.2 mph N/A   Partly Cloudy
12:54 PM 54.0 °F - 30.0 °F 40% 30.03 in 10.0 mi WNW 17.3 mph 26.5 mph N/A   Partly Cloudy
1:54 PM 55.9 °F - 30.9 °F 39% 30.04 in 10.0 mi West 15.0 mph 25.3 mph N/A   Partly Cloudy
2:54 PM 57.0 °F - 30.9 °F 37% 30.04 in 10.0 mi WNW 16.1 mph 26.5 mph N/A   Scattered Clouds
3:54 PM 57.0 °F - 28.0 °F 33% 30.05 in 10.0 mi NW 17.3 mph 28.8 mph N/A   Partly Cloudy
4:54 PM 57.9 °F - 28.0 °F 32% 30.07 in 10.0 mi WNW 18.4 mph 23.0 mph N/A   Mostly Cloudy
5:36 PM 55.4 °F - 24.8 °F 31% 30.10 in 10.0 mi WNW 16.1 mph 31.1 mph N/A   Partly Cloudy
5:54 PM 57.0 °F - 26.1 °F 30% 30.11 in 10.0 mi NW 17.3 mph 20.7 mph N/A   Clear
6:54 PM 54.0 °F - 23.0 °F 30% 30.14 in 10.0 mi WNW 18.4 mph 23.0 mph N/A   Clear
7:54 PM 52.0 °F - 23.0 °F 32% 30.19 in 10.0 mi NW 15.0 mph 20.7 mph N/A   Clear
8:54 PM 50.0 °F - 23.0 °F 35% 30.24 in 10.0 mi WNW 9.2 mph - N/A   Clear
9:54 PM 48.9 °F - 21.9 °F 35% 30.28 in 10.0 mi WNW 11.5 mph - N/A   Clear
10:54 PM 48.0 °F - 21.9 °F 36% 30.31 in 10.0 mi WNW 8.1 mph - N/A   Clear
11:54 PM 46.0 °F 40.6 °F 21.9 °F 39% 30.34 in 10.0 mi NW 11.5 mph - N/A   Clear